Year,Month,Day,Hour,Minute,Value (Times are PST for temperature in C)
2019,05,26,00,00,9.10
2019,05,26,00,01,9.10
2019,05,26,00,02,9.10
2019,05,26,00,03,9.10
2019,05,26,00,04,9.10
2019,05,26,00,05,9.00
2019,05,26,00,06,9.00
2019,05,26,00,07,9.00
2019,05,26,00,08,8.90
2019,05,26,00,09,8.90
2019,05,26,00,10,8.90
2019,05,26,00,11,8.90
2019,05,26,00,12,8.90
2019,05,26,00,13,8.80
2019,05,26,00,14,8.80
2019,05,26,00,15,8.80
2019,05,26,00,16,8.80
2019,05,26,00,17,8.80
2019,05,26,00,18,8.80
2019,05,26,00,19,8.80
2019,05,26,00,20,8.80
2019,05,26,00,21,8.80
2019,05,26,00,22,8.80
2019,05,26,00,23,8.80
2019,05,26,00,24,8.80
2019,05,26,00,25,8.80
2019,05,26,00,26,8.80
2019,05,26,00,27,8.80
2019,05,26,00,28,8.90
2019,05,26,00,29,8.90
2019,05,26,00,30,8.90
2019,05,26,00,31,8.90
2019,05,26,00,32,8.90
2019,05,26,00,33,8.90
2019,05,26,00,34,8.90
2019,05,26,00,35,8.80
2019,05,26,00,36,8.80
2019,05,26,00,37,8.80
2019,05,26,00,38,8.80
2019,05,26,00,39,8.90
2019,05,26,00,40,8.80
2019,05,26,00,41,8.80
2019,05,26,00,42,8.80
2019,05,26,00,43,8.80
2019,05,26,00,44,8.80
2019,05,26,00,45,8.80
2019,05,26,00,46,8.80
2019,05,26,00,47,8.80
2019,05,26,00,48,8.80
2019,05,26,00,49,8.80
2019,05,26,00,50,8.80
2019,05,26,00,51,8.80
2019,05,26,00,52,8.80
2019,05,26,00,53,8.80
2019,05,26,00,54,8.80
2019,05,26,00,55,8.80
2019,05,26,00,56,8.80
2019,05,26,00,57,8.80
2019,05,26,00,58,8.80
2019,05,26,00,59,8.80
2019,05,26,01,00,8.80
2019,05,26,01,01,8.80
2019,05,26,01,02,8.80
2019,05,26,01,03,8.80
2019,05,26,01,04,8.80
2019,05,26,01,05,8.80
2019,05,26,01,06,8.90
2019,05,26,01,07,8.80
2019,05,26,01,08,8.80
2019,05,26,01,09,8.80
2019,05,26,01,10,8.80
2019,05,26,01,11,8.80
2019,05,26,01,12,8.80
2019,05,26,01,13,8.80
2019,05,26,01,14,8.80
2019,05,26,01,15,8.80
2019,05,26,01,16,8.70
2019,05,26,01,17,8.70
2019,05,26,01,18,8.60
2019,05,26,01,19,8.60
2019,05,26,01,20,8.60
2019,05,26,01,21,8.60
2019,05,26,01,22,8.60
2019,05,26,01,23,8.60
2019,05,26,01,24,8.60
2019,05,26,01,25,8.70
2019,05,26,01,26,8.70
2019,05,26,01,27,8.70
2019,05,26,01,28,8.80
2019,05,26,01,29,8.80
2019,05,26,01,30,8.70
2019,05,26,01,31,8.70
2019,05,26,01,32,8.80
2019,05,26,01,33,8.80
2019,05,26,01,34,8.80
2019,05,26,01,35,8.80
2019,05,26,01,36,8.80
2019,05,26,01,37,8.80
2019,05,26,01,38,8.80
2019,05,26,01,39,8.80
2019,05,26,01,40,8.80
2019,05,26,01,41,8.80
2019,05,26,01,42,8.80
2019,05,26,01,43,8.80
2019,05,26,01,44,8.70
2019,05,26,01,45,8.70
2019,05,26,01,46,8.70
2019,05,26,01,47,8.70
2019,05,26,01,48,8.70
2019,05,26,01,49,8.70
2019,05,26,01,50,8.80
2019,05,26,01,51,8.80
2019,05,26,01,52,8.80
2019,05,26,01,53,8.80
2019,05,26,01,54,8.80
2019,05,26,01,55,8.80
2019,05,26,01,56,8.80
2019,05,26,01,57,8.80
2019,05,26,01,58,8.80
2019,05,26,01,59,8.80
2019,05,26,02,00,8.80
2019,05,26,02,01,8.80
2019,05,26,02,02,8.80
2019,05,26,02,03,8.80
2019,05,26,02,04,8.80
2019,05,26,02,05,8.80
2019,05,26,02,06,8.80
2019,05,26,02,07,8.80
2019,05,26,02,08,8.80
2019,05,26,02,09,8.80
2019,05,26,02,10,8.80
2019,05,26,02,11,8.80
2019,05,26,02,12,8.80
2019,05,26,02,13,8.80
2019,05,26,02,14,8.90
2019,05,26,02,15,8.90
2019,05,26,02,16,8.90
2019,05,26,02,17,8.90
2019,05,26,02,18,8.90
2019,05,26,02,19,8.90
2019,05,26,02,20,8.90
2019,05,26,02,21,8.90
2019,05,26,02,22,8.90
2019,05,26,02,23,8.90
2019,05,26,02,24,8.90
2019,05,26,02,25,8.90
2019,05,26,02,26,8.90
2019,05,26,02,27,8.90
2019,05,26,02,28,8.90
2019,05,26,02,29,8.80
2019,05,26,02,30,8.80
2019,05,26,02,31,8.80
2019,05,26,02,32,8.80
2019,05,26,02,33,8.90
2019,05,26,02,34,8.90
2019,05,26,02,35,8.90
2019,05,26,02,36,8.90
2019,05,26,02,37,8.90
2019,05,26,02,38,9.00
2019,05,26,02,39,9.00
2019,05,26,02,40,9.10
2019,05,26,02,41,9.10
2019,05,26,02,42,9.00
2019,05,26,02,43,9.00
2019,05,26,02,44,8.90
2019,05,26,02,45,8.90
2019,05,26,02,46,8.80
2019,05,26,02,47,8.80
2019,05,26,02,48,8.80
2019,05,26,02,49,8.80
2019,05,26,02,50,8.80
2019,05,26,02,51,8.80
2019,05,26,02,52,8.80
2019,05,26,02,53,8.70
2019,05,26,02,54,8.70
2019,05,26,02,55,8.70
2019,05,26,02,56,8.80
2019,05,26,02,57,8.80
2019,05,26,02,58,8.80
2019,05,26,02,59,8.90
2019,05,26,03,00,8.90
2019,05,26,03,01,8.90
2019,05,26,03,02,8.90
2019,05,26,03,03,8.90
2019,05,26,03,04,8.90
2019,05,26,03,05,8.80
2019,05,26,03,06,8.80
2019,05,26,03,07,8.80
2019,05,26,03,08,8.80
2019,05,26,03,09,8.80
2019,05,26,03,10,8.80
2019,05,26,03,11,8.80
2019,05,26,03,12,8.90
2019,05,26,03,13,8.90
2019,05,26,03,14,8.90
2019,05,26,03,15,8.90
2019,05,26,03,16,8.90
2019,05,26,03,17,8.90
2019,05,26,03,18,8.90
2019,05,26,03,19,8.90
2019,05,26,03,20,8.90
2019,05,26,03,21,8.90
2019,05,26,03,22,9.00
2019,05,26,03,23,9.00
2019,05,26,03,24,9.10
2019,05,26,03,25,9.10
2019,05,26,03,26,9.00
2019,05,26,03,27,9.00
2019,05,26,03,28,8.90
2019,05,26,03,29,8.90
2019,05,26,03,30,8.80
2019,05,26,03,31,8.80
2019,05,26,03,32,8.80
2019,05,26,03,33,8.80
2019,05,26,03,34,8.70
2019,05,26,03,35,8.70
2019,05,26,03,36,8.70
2019,05,26,03,37,8.70
2019,05,26,03,38,8.70
2019,05,26,03,39,8.70
2019,05,26,03,40,8.70
2019,05,26,03,41,8.70
2019,05,26,03,42,8.70
2019,05,26,03,43,8.80
2019,05,26,03,44,8.80
2019,05,26,03,45,8.80
2019,05,26,03,46,8.80
2019,05,26,03,47,8.80
2019,05,26,03,48,8.90
2019,05,26,03,49,8.90
2019,05,26,03,50,8.90
2019,05,26,03,51,8.80
2019,05,26,03,52,8.80
2019,05,26,03,53,8.80
2019,05,26,03,54,8.80
2019,05,26,03,55,8.90
2019,05,26,03,56,8.90
2019,05,26,03,57,8.90
2019,05,26,03,58,8.90
2019,05,26,03,59,8.90
2019,05,26,04,00,9.00
2019,05,26,04,01,9.00
2019,05,26,04,02,9.10
2019,05,26,04,03,9.10
2019,05,26,04,04,9.10
2019,05,26,04,05,9.10
2019,05,26,04,06,9.10
2019,05,26,04,07,9.00
2019,05,26,04,08,9.00
2019,05,26,04,09,8.90
2019,05,26,04,10,8.90
2019,05,26,04,11,8.80
2019,05,26,04,12,8.80
2019,05,26,04,13,8.80
2019,05,26,04,14,8.80
2019,05,26,04,15,8.80
2019,05,26,04,16,8.70
2019,05,26,04,17,8.70
2019,05,26,04,18,8.80
2019,05,26,04,19,8.80
2019,05,26,04,20,8.80
2019,05,26,04,21,8.90
2019,05,26,04,22,8.90
2019,05,26,04,23,8.90
2019,05,26,04,24,8.90
2019,05,26,04,25,8.90
2019,05,26,04,26,9.00
2019,05,26,04,27,9.00
2019,05,26,04,28,8.90
2019,05,26,04,29,8.90
2019,05,26,04,30,8.80
2019,05,26,04,31,8.80
2019,05,26,04,32,8.70
2019,05,26,04,33,8.70
2019,05,26,04,34,8.80
2019,05,26,04,35,8.80
2019,05,26,04,36,8.90
2019,05,26,04,37,8.90
2019,05,26,04,38,8.90
2019,05,26,04,39,8.90
2019,05,26,04,40,8.90
2019,05,26,04,41,8.80
2019,05,26,04,42,8.70
2019,05,26,04,43,8.60
2019,05,26,04,44,8.60
2019,05,26,04,45,8.50
2019,05,26,04,46,8.60
2019,05,26,04,47,8.60
2019,05,26,04,48,8.70
2019,05,26,04,49,8.70
2019,05,26,04,50,8.70
2019,05,26,04,51,8.80
2019,05,26,04,52,8.80
2019,05,26,04,53,8.80
2019,05,26,04,54,8.80
2019,05,26,04,55,8.90
2019,05,26,04,56,8.90
2019,05,26,04,57,8.90
2019,05,26,04,58,8.90
2019,05,26,04,59,8.90
2019,05,26,05,00,8.90
2019,05,26,05,01,8.80
2019,05,26,05,02,8.80
2019,05,26,05,03,8.90
2019,05,26,05,04,8.90
2019,05,26,05,05,8.90
2019,05,26,05,06,8.90
2019,05,26,05,07,8.90
2019,05,26,05,08,8.90
2019,05,26,05,09,8.90
2019,05,26,05,10,8.90
2019,05,26,05,11,8.90
2019,05,26,05,12,8.80
2019,05,26,05,13,8.80
2019,05,26,05,14,8.80
2019,05,26,05,15,8.80
2019,05,26,05,16,8.80
2019,05,26,05,17,8.80
2019,05,26,05,18,8.90
2019,05,26,05,19,8.90
2019,05,26,05,20,8.90
2019,05,26,05,21,8.90
2019,05,26,05,22,8.90
2019,05,26,05,23,8.80
2019,05,26,05,24,8.80
2019,05,26,05,25,8.80
2019,05,26,05,26,8.80
2019,05,26,05,27,8.90
2019,05,26,05,28,9.00
2019,05,26,05,29,9.10
2019,05,26,05,30,9.20
2019,05,26,05,31,9.20
2019,05,26,05,32,9.20
2019,05,26,05,33,9.10
2019,05,26,05,34,9.00
2019,05,26,05,35,8.90
2019,05,26,05,36,8.90
2019,05,26,05,37,8.80
2019,05,26,05,38,8.70
2019,05,26,05,39,8.70
2019,05,26,05,40,8.80
2019,05,26,05,41,8.80
2019,05,26,05,42,8.70
2019,05,26,05,43,8.70
2019,05,26,05,44,8.70
2019,05,26,05,45,8.70
2019,05,26,05,46,8.70
2019,05,26,05,47,8.70
2019,05,26,05,48,8.80
2019,05,26,05,49,8.90
2019,05,26,05,50,8.90
2019,05,26,05,51,8.90
2019,05,26,05,52,9.00
2019,05,26,05,53,9.00
2019,05,26,05,54,9.10
2019,05,26,05,55,9.10
2019,05,26,05,56,9.20
2019,05,26,05,57,9.20
2019,05,26,05,58,9.30
2019,05,26,05,59,9.40
2019,05,26,06,00,9.40
2019,05,26,06,01,9.50
2019,05,26,06,02,9.50
2019,05,26,06,03,9.50
2019,05,26,06,04,9.50
2019,05,26,06,05,9.50
2019,05,26,06,06,9.50
2019,05,26,06,07,9.40
2019,05,26,06,08,9.40
2019,05,26,06,09,9.30
2019,05,26,06,10,9.30
2019,05,26,06,11,9.20
2019,05,26,06,12,9.20
2019,05,26,06,13,9.20
2019,05,26,06,14,9.20
2019,05,26,06,15,9.20
2019,05,26,06,16,9.20
2019,05,26,06,17,9.20
2019,05,26,06,18,9.20
2019,05,26,06,19,9.30
2019,05,26,06,20,9.40
2019,05,26,06,21,9.50
2019,05,26,06,22,9.60
2019,05,26,06,23,9.60
2019,05,26,06,24,9.60
2019,05,26,06,25,9.60
2019,05,26,06,26,9.50
2019,05,26,06,27,9.50
2019,05,26,06,28,9.60
2019,05,26,06,29,9.70
2019,05,26,06,30,9.70
2019,05,26,06,31,9.70
2019,05,26,06,32,9.80
2019,05,26,06,33,9.80
2019,05,26,06,34,10.00
2019,05,26,06,35,10.00
2019,05,26,06,36,10.10
2019,05,26,06,37,10.20
2019,05,26,06,38,10.30
2019,05,26,06,39,10.40
2019,05,26,06,40,10.40
2019,05,26,06,41,10.50
2019,05,26,06,42,10.60
2019,05,26,06,43,10.70
2019,05,26,06,44,10.80
2019,05,26,06,45,10.80
2019,05,26,06,46,10.90
2019,05,26,06,47,10.90
2019,05,26,06,48,10.90
2019,05,26,06,49,10.90
2019,05,26,06,50,10.90
2019,05,26,06,51,10.90
2019,05,26,06,52,10.90
2019,05,26,06,53,10.90
2019,05,26,06,54,10.90
2019,05,26,06,55,11.00
2019,05,26,06,56,11.00
2019,05,26,06,57,11.10
2019,05,26,06,58,11.20
2019,05,26,06,59,11.20
2019,05,26,07,00,11.20
2019,05,26,07,01,11.30
2019,05,26,07,02,11.30
2019,05,26,07,03,11.30
2019,05,26,07,04,11.30
2019,05,26,07,05,11.30
2019,05,26,07,06,11.30
2019,05,26,07,07,11.40
2019,05,26,07,08,11.40
2019,05,26,07,09,11.50
2019,05,26,07,10,11.60
2019,05,26,07,11,11.70
2019,05,26,07,12,11.70
2019,05,26,07,13,11.80
2019,05,26,07,14,11.90
2019,05,26,07,15,11.90
2019,05,26,07,16,11.90
2019,05,26,07,17,12.00
2019,05,26,07,18,12.10
2019,05,26,07,19,12.20
2019,05,26,07,20,12.20
2019,05,26,07,21,12.30
2019,05,26,07,22,12.30
2019,05,26,07,23,12.30
2019,05,26,07,24,12.40
2019,05,26,07,25,12.40
2019,05,26,07,26,12.40
2019,05,26,07,27,12.50
2019,05,26,07,28,12.50
2019,05,26,07,29,12.60
2019,05,26,07,30,12.70
2019,05,26,07,31,12.80
2019,05,26,07,32,12.90
2019,05,26,07,33,12.90
2019,05,26,07,34,13.00
2019,05,26,07,35,13.00
2019,05,26,07,36,13.00
2019,05,26,07,37,13.00
2019,05,26,07,38,13.00
2019,05,26,07,39,13.00
2019,05,26,07,40,13.10
2019,05,26,07,41,13.10
2019,05,26,07,42,13.20
2019,05,26,07,43,13.20
2019,05,26,07,44,13.20
2019,05,26,07,45,13.30
2019,05,26,07,46,13.30
2019,05,26,07,47,13.20
2019,05,26,07,48,13.20
2019,05,26,07,49,13.20
2019,05,26,07,50,13.20
2019,05,26,07,51,13.10
2019,05,26,07,52,13.10
2019,05,26,07,53,13.00
2019,05,26,07,54,13.00
2019,05,26,07,55,13.10
2019,05,26,07,56,13.10
2019,05,26,07,57,13.10
2019,05,26,07,58,13.20
2019,05,26,07,59,13.30
2019,05,26,08,00,13.40
2019,05,26,08,01,13.60
2019,05,26,08,02,13.70
2019,05,26,08,03,13.80
2019,05,26,08,04,13.90
2019,05,26,08,05,14.00
2019,05,26,08,06,14.00
2019,05,26,08,07,14.10
2019,05,26,08,08,14.10
2019,05,26,08,09,14.20
2019,05,26,08,10,14.20
2019,05,26,08,11,14.30
2019,05,26,08,12,14.40
2019,05,26,08,13,14.50
2019,05,26,08,14,14.60
2019,05,26,08,15,14.60
2019,05,26,08,16,14.70
2019,05,26,08,17,14.70
2019,05,26,08,18,14.70
2019,05,26,08,19,14.70
2019,05,26,08,20,14.70
2019,05,26,08,21,14.80
2019,05,26,08,22,14.80
2019,05,26,08,23,14.80
2019,05,26,08,24,14.80
2019,05,26,08,25,14.80
2019,05,26,08,26,14.80
2019,05,26,08,27,14.80
2019,05,26,08,28,14.70
2019,05,26,08,29,14.70
2019,05,26,08,30,14.80
2019,05,26,08,31,14.80
2019,05,26,08,32,14.80
2019,05,26,08,33,14.80
2019,05,26,08,34,14.90
2019,05,26,08,35,14.90
2019,05,26,08,36,14.90
2019,05,26,08,37,15.00
2019,05,26,08,38,15.10
2019,05,26,08,39,15.20
2019,05,26,08,40,15.20
2019,05,26,08,41,15.30
2019,05,26,08,42,15.30
2019,05,26,08,43,15.30
2019,05,26,08,44,15.40
2019,05,26,08,45,15.50
2019,05,26,08,46,15.60
2019,05,26,08,47,15.60
2019,05,26,08,48,15.70
2019,05,26,08,49,15.80
2019,05,26,08,50,15.90
2019,05,26,08,51,16.00
2019,05,26,08,52,16.00
2019,05,26,08,53,16.10
2019,05,26,08,54,16.00
2019,05,26,08,55,15.90
2019,05,26,08,56,15.80
2019,05,26,08,57,15.80
2019,05,26,08,58,15.80
2019,05,26,08,59,15.80
2019,05,26,09,00,15.90
2019,05,26,09,01,15.90
2019,05,26,09,02,15.80
2019,05,26,09,03,15.80
2019,05,26,09,04,15.80
2019,05,26,09,05,15.80
2019,05,26,09,06,15.80
2019,05,26,09,07,15.80
2019,05,26,09,08,15.80
2019,05,26,09,09,15.80
2019,05,26,09,10,15.80
2019,05,26,09,11,15.90
2019,05,26,09,12,15.80
2019,05,26,09,13,15.90
2019,05,26,09,14,15.90
2019,05,26,09,15,15.90
2019,05,26,09,16,15.90
2019,05,26,09,17,16.00
2019,05,26,09,18,16.10
2019,05,26,09,19,16.20
2019,05,26,09,20,16.20
2019,05,26,09,21,16.30
2019,05,26,09,22,16.30
2019,05,26,09,23,16.30
2019,05,26,09,24,16.30
2019,05,26,09,25,16.30
2019,05,26,09,26,16.30
2019,05,26,09,27,16.30
2019,05,26,09,28,16.30
2019,05,26,09,29,16.30
2019,05,26,09,30,16.30
2019,05,26,09,31,16.40
2019,05,26,09,32,16.40
2019,05,26,09,33,16.40
2019,05,26,09,34,16.40
2019,05,26,09,35,16.40
2019,05,26,09,36,16.50
2019,05,26,09,37,16.50
2019,05,26,09,38,16.70
2019,05,26,09,39,16.70
2019,05,26,09,40,16.70
2019,05,26,09,41,16.80
2019,05,26,09,42,16.80
2019,05,26,09,43,17.00
2019,05,26,09,44,17.00
2019,05,26,09,45,17.10
2019,05,26,09,46,17.20
2019,05,26,09,47,17.40
2019,05,26,09,48,17.40
2019,05,26,09,49,17.40
2019,05,26,09,50,17.40
2019,05,26,09,51,17.40
2019,05,26,09,52,17.40
2019,05,26,09,53,17.30
2019,05,26,09,54,17.30
2019,05,26,09,55,17.30
2019,05,26,09,56,17.30
2019,05,26,09,57,17.30
2019,05,26,09,58,17.30
2019,05,26,09,59,17.30
2019,05,26,10,00,17.30
2019,05,26,10,01,17.30
2019,05,26,10,02,17.30
2019,05,26,10,03,17.40
2019,05,26,10,04,17.40
2019,05,26,10,05,17.50
2019,05,26,10,06,17.50
2019,05,26,10,07,17.60
2019,05,26,10,08,17.60
2019,05,26,10,09,17.70
2019,05,26,10,10,17.70
2019,05,26,10,11,17.80
2019,05,26,10,12,17.80
2019,05,26,10,13,17.90
2019,05,26,10,14,17.90
2019,05,26,10,15,17.80
2019,05,26,10,16,17.80
2019,05,26,10,17,17.80
2019,05,26,10,18,17.80
2019,05,26,10,19,17.90
2019,05,26,10,20,18.10
2019,05,26,10,21,18.20
2019,05,26,10,22,18.40
2019,05,26,10,23,18.40
2019,05,26,10,24,18.30
2019,05,26,10,25,18.20
2019,05,26,10,26,18.10
2019,05,26,10,27,18.00
2019,05,26,10,28,18.00
2019,05,26,10,29,18.10
2019,05,26,10,30,18.30
2019,05,26,10,31,18.40
2019,05,26,10,32,18.40
2019,05,26,10,33,18.30
2019,05,26,10,34,18.20
2019,05,26,10,35,18.10
2019,05,26,10,36,18.10
2019,05,26,10,37,18.10
2019,05,26,10,38,18.10
2019,05,26,10,39,18.20
2019,05,26,10,40,18.20
2019,05,26,10,41,18.10
2019,05,26,10,42,18.00
2019,05,26,10,43,17.90
2019,05,26,10,44,17.90
2019,05,26,10,45,17.90
2019,05,26,10,46,17.90
2019,05,26,10,47,17.90
2019,05,26,10,48,18.00
2019,05,26,10,49,18.10
2019,05,26,10,50,18.20
2019,05,26,10,51,18.30
2019,05,26,10,52,18.40
2019,05,26,10,53,18.50
2019,05,26,10,54,18.60
2019,05,26,10,55,18.60
2019,05,26,10,56,18.60
2019,05,26,10,57,18.60
2019,05,26,10,58,18.70
2019,05,26,10,59,18.70
2019,05,26,11,00,18.60
2019,05,26,11,01,18.60
2019,05,26,11,02,18.60
2019,05,26,11,03,18.60
2019,05,26,11,04,18.60
2019,05,26,11,05,18.50
2019,05,26,11,06,18.40
2019,05,26,11,07,18.40
2019,05,26,11,08,18.40
2019,05,26,11,09,18.40
2019,05,26,11,10,18.50
2019,05,26,11,11,18.50
2019,05,26,11,12,18.60
2019,05,26,11,13,18.60
2019,05,26,11,14,18.50
2019,05,26,11,15,18.50
2019,05,26,11,16,18.50
2019,05,26,11,17,18.60
2019,05,26,11,18,18.70
2019,05,26,11,19,18.80
2019,05,26,11,20,18.80
2019,05,26,11,21,18.80
2019,05,26,11,22,18.80
2019,05,26,11,23,18.80
2019,05,26,11,24,18.80
2019,05,26,11,25,18.80
2019,05,26,11,26,18.80
2019,05,26,11,27,18.80
2019,05,26,11,28,18.80
2019,05,26,11,29,18.90
2019,05,26,11,30,19.00
2019,05,26,11,31,19.20
2019,05,26,11,32,19.40
2019,05,26,11,33,19.50
2019,05,26,11,34,19.60
2019,05,26,11,35,19.60
2019,05,26,11,36,19.50
2019,05,26,11,37,19.30
2019,05,26,11,38,19.20
2019,05,26,11,39,19.20
2019,05,26,11,40,19.10
2019,05,26,11,41,19.00
2019,05,26,11,42,18.90
2019,05,26,11,43,18.90
2019,05,26,11,44,18.90
2019,05,26,11,45,18.90
2019,05,26,11,46,18.90
2019,05,26,11,47,18.90
2019,05,26,11,48,18.90
2019,05,26,11,49,19.00
2019,05,26,11,50,19.10
2019,05,26,11,51,19.20
2019,05,26,11,52,19.30
2019,05,26,11,53,19.40
2019,05,26,11,54,19.50
2019,05,26,11,55,19.60
2019,05,26,11,56,19.70
2019,05,26,11,57,19.70
2019,05,26,11,58,19.70
2019,05,26,11,59,19.70
2019,05,26,12,00,19.70
2019,05,26,12,01,19.70
2019,05,26,12,02,19.70
2019,05,26,12,03,19.70
2019,05,26,12,04,19.80
2019,05,26,12,05,20.00
2019,05,26,12,06,20.10
2019,05,26,12,07,20.20
2019,05,26,12,08,20.20
2019,05,26,12,09,20.30
2019,05,26,12,10,20.40
2019,05,26,12,11,20.40
2019,05,26,12,12,20.40
2019,05,26,12,13,20.40
2019,05,26,12,14,20.30
2019,05,26,12,15,20.30
2019,05,26,12,16,20.30
2019,05,26,12,17,20.30
2019,05,26,12,18,20.10
2019,05,26,12,19,20.00
2019,05,26,12,20,19.90
2019,05,26,12,21,19.90
2019,05,26,12,22,19.90
2019,05,26,12,23,19.90
2019,05,26,12,24,20.00
2019,05,26,12,25,20.00
2019,05,26,12,26,20.20
2019,05,26,12,27,20.20
2019,05,26,12,28,20.20
2019,05,26,12,29,20.00
2019,05,26,12,30,19.90
2019,05,26,12,31,19.90
2019,05,26,12,32,19.80
2019,05,26,12,33,19.80
2019,05,26,12,34,19.70
2019,05,26,12,35,19.70
2019,05,26,12,36,19.80
2019,05,26,12,37,19.70
2019,05,26,12,38,19.70
2019,05,26,12,39,19.70
2019,05,26,12,40,19.60
2019,05,26,12,41,19.60
2019,05,26,12,42,19.60
2019,05,26,12,43,19.60
2019,05,26,12,44,19.60
2019,05,26,12,45,19.70
2019,05,26,12,46,19.90
2019,05,26,12,47,19.90
2019,05,26,12,48,19.80
2019,05,26,12,49,19.90
2019,05,26,12,50,20.00
2019,05,26,12,51,20.00
2019,05,26,12,52,20.00
2019,05,26,12,53,19.90
2019,05,26,12,54,19.80
2019,05,26,12,55,19.80
2019,05,26,12,56,19.70
2019,05,26,12,57,19.70
2019,05,26,12,58,19.70
2019,05,26,12,59,19.70
2019,05,26,13,00,19.80
2019,05,26,13,01,19.80
2019,05,26,13,02,19.90
2019,05,26,13,03,20.00
2019,05,26,13,04,20.00
2019,05,26,13,05,20.10
2019,05,26,13,06,20.20
2019,05,26,13,07,20.40
2019,05,26,13,08,20.50
2019,05,26,13,09,20.40
2019,05,26,13,10,20.30
2019,05,26,13,11,20.30
2019,05,26,13,12,20.30
2019,05,26,13,13,20.30
2019,05,26,13,14,20.20
2019,05,26,13,15,20.20
2019,05,26,13,16,20.30
2019,05,26,13,17,20.30
2019,05,26,13,18,20.40
2019,05,26,13,19,20.30
2019,05,26,13,20,20.20
2019,05,26,13,21,20.10
2019,05,26,13,22,20.00
2019,05,26,13,23,19.80
2019,05,26,13,24,19.60
2019,05,26,13,25,19.50
2019,05,26,13,26,19.40
2019,05,26,13,27,19.40
2019,05,26,13,28,19.40
2019,05,26,13,29,19.50
2019,05,26,13,30,19.60
2019,05,26,13,31,19.70
2019,05,26,13,32,19.80
2019,05,26,13,33,20.10
2019,05,26,13,34,20.40
2019,05,26,13,35,20.60
2019,05,26,13,36,20.70
2019,05,26,13,37,20.80
2019,05,26,13,38,20.80
2019,05,26,13,39,20.80
2019,05,26,13,40,20.70
2019,05,26,13,41,20.50
2019,05,26,13,42,20.40
2019,05,26,13,43,20.20
2019,05,26,13,44,20.00
2019,05,26,13,45,19.80
2019,05,26,13,46,19.70
2019,05,26,13,47,19.60
2019,05,26,13,48,19.60
2019,05,26,13,49,19.60
2019,05,26,13,50,19.60
2019,05,26,13,51,19.60
2019,05,26,13,52,19.70
2019,05,26,13,53,19.70
2019,05,26,13,54,19.70
2019,05,26,13,55,19.80
2019,05,26,13,56,19.90
2019,05,26,13,57,20.00
2019,05,26,13,58,20.10
2019,05,26,13,59,20.20
2019,05,26,14,00,20.30
2019,05,26,14,01,20.40
2019,05,26,14,02,20.40
2019,05,26,14,03,20.50
2019,05,26,14,04,20.60
2019,05,26,14,05,20.60
2019,05,26,14,06,20.60
2019,05,26,14,07,20.50
2019,05,26,14,08,20.50
2019,05,26,14,09,20.50
2019,05,26,14,10,20.50
2019,05,26,14,11,20.40
2019,05,26,14,12,20.30
2019,05,26,14,13,20.20
2019,05,26,14,14,20.10
2019,05,26,14,15,20.10
2019,05,26,14,16,20.10
2019,05,26,14,17,20.20
2019,05,26,14,18,20.30
2019,05,26,14,19,20.50
2019,05,26,14,20,20.60
2019,05,26,14,21,20.60
2019,05,26,14,22,20.70
2019,05,26,14,23,20.70
2019,05,26,14,24,20.70
2019,05,26,14,25,20.70
2019,05,26,14,26,20.70
2019,05,26,14,27,20.60
2019,05,26,14,28,20.50
2019,05,26,14,29,20.40
2019,05,26,14,30,20.30
2019,05,26,14,31,20.30
2019,05,26,14,32,20.30
2019,05,26,14,33,20.20
2019,05,26,14,34,20.10
2019,05,26,14,35,20.00
2019,05,26,14,36,19.80
2019,05,26,14,37,19.70
2019,05,26,14,38,19.60
2019,05,26,14,39,19.60
2019,05,26,14,40,19.60
2019,05,26,14,41,19.60
2019,05,26,14,42,19.70
2019,05,26,14,43,19.70
2019,05,26,14,44,19.70
2019,05,26,14,45,19.80
2019,05,26,14,46,19.80
2019,05,26,14,47,19.90
2019,05,26,14,48,19.90
2019,05,26,14,49,19.80
2019,05,26,14,50,19.80
2019,05,26,14,51,19.70
2019,05,26,14,52,19.70
2019,05,26,14,53,19.70
2019,05,26,14,54,19.60
2019,05,26,14,55,19.60
2019,05,26,14,56,19.70
2019,05,26,14,57,19.80
2019,05,26,14,58,19.80
2019,05,26,14,59,19.90
2019,05,26,15,00,19.90
2019,05,26,15,01,20.00
2019,05,26,15,02,20.10
2019,05,26,15,03,20.20
2019,05,26,15,04,20.30
2019,05,26,15,05,20.30
2019,05,26,15,06,20.40
2019,05,26,15,07,20.50
2019,05,26,15,08,20.60
2019,05,26,15,09,20.70
2019,05,26,15,10,20.70
2019,05,26,15,11,20.70
2019,05,26,15,12,20.80
2019,05,26,15,13,20.80
2019,05,26,15,14,20.70
2019,05,26,15,15,20.70
2019,05,26,15,16,20.70
2019,05,26,15,17,20.70
2019,05,26,15,18,20.60
2019,05,26,15,19,20.60
2019,05,26,15,20,20.50
2019,05,26,15,21,20.50
2019,05,26,15,22,20.50
2019,05,26,15,23,20.50
2019,05,26,15,24,20.50
2019,05,26,15,25,20.60
2019,05,26,15,26,20.60
2019,05,26,15,27,20.60
2019,05,26,15,28,20.60
2019,05,26,15,29,20.60
2019,05,26,15,30,20.60
2019,05,26,15,31,20.70
2019,05,26,15,32,20.70
2019,05,26,15,33,20.70
2019,05,26,15,34,20.70
2019,05,26,15,35,20.70
2019,05,26,15,36,20.70
2019,05,26,15,37,20.70
2019,05,26,15,38,20.70
2019,05,26,15,39,20.80
2019,05,26,15,40,20.80
2019,05,26,15,41,20.80
2019,05,26,15,42,20.90
2019,05,26,15,43,20.90
2019,05,26,15,44,20.90
2019,05,26,15,45,21.00
2019,05,26,15,46,21.00
2019,05,26,15,47,21.10
2019,05,26,15,48,21.20
2019,05,26,15,49,21.30
2019,05,26,15,50,21.30
2019,05,26,15,51,21.40
2019,05,26,15,52,21.50
2019,05,26,15,53,21.60
2019,05,26,15,54,21.70
2019,05,26,15,55,21.80
2019,05,26,15,56,21.80
2019,05,26,15,57,21.90
2019,05,26,15,58,21.90
2019,05,26,15,59,21.90
2019,05,26,16,00,21.90
2019,05,26,16,01,21.90
2019,05,26,16,02,21.90
2019,05,26,16,03,21.90
2019,05,26,16,04,21.90
2019,05,26,16,05,21.80
2019,05,26,16,06,21.90
2019,05,26,16,07,21.90
2019,05,26,16,08,21.90
2019,05,26,16,09,21.90
2019,05,26,16,10,21.90
2019,05,26,16,11,22.00
2019,05,26,16,12,22.00
2019,05,26,16,13,22.10
2019,05,26,16,14,22.10
2019,05,26,16,15,22.20
2019,05,26,16,16,22.20
2019,05,26,16,17,22.20
2019,05,26,16,18,22.30
2019,05,26,16,19,22.40
2019,05,26,16,20,22.50
2019,05,26,16,21,22.70
2019,05,26,16,22,22.90
2019,05,26,16,23,23.10
2019,05,26,16,24,23.30
2019,05,26,16,25,23.50
2019,05,26,16,26,23.60
2019,05,26,16,27,23.70
2019,05,26,16,28,23.80
2019,05,26,16,29,23.90
2019,05,26,16,30,23.90
2019,05,26,16,31,23.90
2019,05,26,16,32,23.90
2019,05,26,16,33,24.00
2019,05,26,16,34,24.00
2019,05,26,16,35,24.10
2019,05,26,16,36,24.10
2019,05,26,16,37,24.20
2019,05,26,16,38,24.30
2019,05,26,16,39,24.40
2019,05,26,16,40,24.50
2019,05,26,16,41,24.70
2019,05,26,16,42,24.80
2019,05,26,16,43,25.00
2019,05,26,16,44,25.10
2019,05,26,16,45,25.10
2019,05,26,16,46,25.20
2019,05,26,16,47,25.30
2019,05,26,16,48,25.30
2019,05,26,16,49,25.40
2019,05,26,16,50,25.50
2019,05,26,16,51,25.60
2019,05,26,16,52,25.60
2019,05,26,16,53,25.60
2019,05,26,16,54,25.60
2019,05,26,16,55,25.50
2019,05,26,16,56,25.40
2019,05,26,16,57,25.30
2019,05,26,16,58,25.20
2019,05,26,16,59,25.10
2019,05,26,17,00,25.10
2019,05,26,17,01,25.10
2019,05,26,17,02,25.10
2019,05,26,17,03,25.10
2019,05,26,17,04,25.20
2019,05,26,17,05,25.20
2019,05,26,17,06,25.20
2019,05,26,17,07,25.20
2019,05,26,17,08,25.30
2019,05,26,17,09,25.30
2019,05,26,17,10,25.30
2019,05,26,17,11,25.30
2019,05,26,17,12,25.30
2019,05,26,17,13,25.30
2019,05,26,17,14,25.40
2019,05,26,17,15,25.40
2019,05,26,17,16,25.50
2019,05,26,17,17,25.50
2019,05,26,17,18,25.40
2019,05,26,17,19,25.50
2019,05,26,17,20,25.40
2019,05,26,17,21,25.40
2019,05,26,17,22,25.30
2019,05,26,17,23,25.30
2019,05,26,17,24,25.40
2019,05,26,17,25,25.40
2019,05,26,17,26,25.40
2019,05,26,17,27,25.40
2019,05,26,17,28,25.40
2019,05,26,17,29,25.40
2019,05,26,17,30,25.40
2019,05,26,17,31,25.40
2019,05,26,17,32,25.40
2019,05,26,17,33,25.40
2019,05,26,17,34,25.40
2019,05,26,17,35,25.40
2019,05,26,17,36,25.40